Content
SEND FEEDBACK

Daily
Averages
Monthly
Summary
United States of America

KOSHOPAH, NEBRASKA


Home > North America > United States > Nebraska
Elevation: 2650 feet     Latitude: 42 10N     Longitude: 100 01W

WEATHER
 
SELECT A DAY
Number of Records: 459,817;   Date Range: 1/1/95 - 9/30/14
 
SHARE

PRINT THIS DATA

[ ← Previous Day ]
WEATHER ALMANAC - JANUARY 23, 2013
[ Next Day → ]
[ °C ]   °F
Weather ElementAverageHighLow
Temperature18.3 °F24.1 °F (1:35 am)6.8 °F (11:35 pm)
Dewpoint10.8 °F17.1 °F (12:55 am)2.8 °F (11:15 pm)
Humidity73 %86 % (5:55 am)55 % (3:35 pm)
Barometer30.23 in30.38 in (11:55 pm)30.07 in (1:15 am)
Wind Speed8.2 mph17.3 mph (10:55 am)
Wind Gust20.7 mph (12:15 pm)
Weather ElementAverage
Visibility10 mi
Wind DirectionSSW (202.5 °)

Weather ElementTotal
Precipitation---
Heating Degree Days49.6 (Base 65)
Averaged from 71 records on January 23, 2013
WEATHER CONDITIONS BREAKOUT
WIND DIRECTION BREAKOUT
WEATHER BY HOUR - JANUARY 23, 2013
[ °C ]   °F
Local TimeTemperatureDewpointHumidityBarometerVisibilityWind DirectionWind SpeedGust SpeedPrecipitationEventsConditions
12:35 AM23.4 °F16.9 °F76 %30.08 in10.0 miWSW (250°)6.9 mphClear
12:55 AM23.2 °F17.1 °F77 %30.08 in10.0 miWest (260°)5.8 mphClear
1:15 AM23.5 °F16.7 °F75 %30.07 in10.0 miWSW (250°)6.9 mphClear
1:35 AM24.1 °F16.7 °F73 %30.07 in10.0 miWest (270°)3.5 mphClear
1:55 AM22.8 °F15.6 °F74 %30.08 in10.0 miWNW (290°)3.5 mphClear
2:15 AM19.0 °F13.1 °F78 %30.08 in10.0 miNW (320°)5.8 mphClear
2:35 AM20.5 °F13.8 °F75 %30.09 in10.0 miNW (310°)4.6 mphClear
2:55 AM19.6 °F13.8 °F78 %30.09 in10.0 miNW (310°)3.5 mphClear
3:15 AM21.0 °F15.4 °F79 %30.09 in10.0 miCalmClear
3:35 AM20.5 °F15.1 °F80 %30.09 in10.0 miNW (310°)3.5 mphClear
3:55 AM20.7 °F14.7 °F78 %30.09 in10.0 miWNW (290°)5.8 mphClear
4:15 AM19.2 °F14.0 °F80 %30.09 in10.0 miWNW (300°)3.5 mphClear
4:35 AM19.6 °F14.0 °F79 %30.08 in10.0 miNW (310°)4.6 mphClear
4:55 AM20.3 °F15.3 °F81 %30.09 in10.0 miNW (310°)5.8 mphClear
5:15 AM21.7 °F15.1 °F76 %30.09 in10.0 miNW (320°)4.6 mphClear
5:35 AM19.0 °F13.5 °F79 %30.09 in10.0 miNW (320°)3.5 mphClear
5:55 AM17.6 °F14.0 °F86 %30.11 in10.0 miNW (310°)4.6 mphClear
6:15 AM19.4 °F14.2 °F80 %30.11 in10.0 miNW (310°)3.5 mphClear
6:35 AM19.6 °F14.5 °F81 %30.12 in10.0 miNNW (330°)4.6 mphClear
6:55 AM17.2 °F12.2 °F81 %30.12 in10.0 miNNW (330°)4.6 mphClear
7:15 AM19.6 °F14.9 °F82 %30.14 in10.0 miNNW (330°)6.9 mphClear
7:35 AM19.6 °F14.7 °F81 %30.15 in10.0 miNNW (330°)5.8 mphClear
7:55 AM19.2 °F14.5 °F82 %30.16 in10.0 miNorth (360°)9.2 mphClear
8:15 AM18.9 °F14.4 °F83 %30.17 in10.0 miNorth (360°)6.9 mphClear
8:35 AM18.5 °F14.0 °F83 %30.18 in10.0 miNorth (350°)8.1 mphClear
8:55 AM18.5 °F13.8 °F82 %30.18 in10.0 miNorth (350°)9.2 mphClear
9:15 AM18.9 °F14.0 °F81 %30.19 in10.0 miNorth (360°)9.2 mphClear
9:35 AM19.0 °F13.8 °F80 %30.21 in10.0 miNorth (350°)13.8 mphClear
9:55 AM18.5 °F13.3 °F80 %30.23 in10.0 miNorth (360°)12.7 mphClear
10:15 AM18.5 °F13.3 °F80 %30.24 in10.0 miNorth (360°)16.1 mphClear
10:35 AM18.5 °F12.9 °F79 %30.25 in10.0 miNorth (360°)12.7 mphClear
10:55 AM18.9 °F13.1 °F78 %30.26 in10.0 miNorth (360°)17.3 mphScattered Clouds
11:15 AM19.9 °F13.1 °F75 %30.26 in10.0 miNorth (360°)13.8 mphClear
11:35 AM21.2 °F12.7 °F70 %30.28 in10.0 miNorth (360°)13.8 mphClear
11:55 AM22.1 °F12.9 °F68 %30.27 in10.0 miNorth (360°)12.7 mph19.6 mphClear
12:15 PM22.8 °F12.6 °F65 %30.27 in10.0 miNorth (350°)13.8 mph20.7 mphClear
12:35 PM22.6 °F11.7 °F63 %30.27 in10.0 miNorth (360°)12.7 mphClear
12:55 PM23.0 °F11.1 °F60 %30.27 in10.0 miNorth (10°)15.0 mph18.4 mphClear
1:15 PM22.8 °F10.2 °F59 %30.26 in10.0 miNorth (350°)15.0 mphClear
1:35 PM23.4 °F10.2 °F57 %30.26 in10.0 miNorth (360°)12.7 mphClear
1:55 PM22.3 °F9.7 °F58 %30.26 in10.0 miNorth (10°)11.5 mphClear
2:15 PM22.1 °F10.0 °F60 %30.27 in10.0 miNorth (360°)12.7 mphClear
2:35 PM22.6 °F10.2 °F59 %30.28 in10.0 miNNE (20°)10.4 mphClear
2:55 PM22.6 °F9.9 °F58 %30.28 in10.0 miNorth (360°)15.0 mphClear
3:15 PM22.6 °F9.5 °F57 %30.29 in10.0 miNorth (10°)11.5 mph17.3 mphClear
3:35 PM22.6 °F8.8 °F55 %30.29 in10.0 miNorth (10°)13.8 mphClear
3:55 PM21.6 °F8.6 °F57 %30.29 in10.0 miNorth (10°)13.8 mphClear
4:15 PM20.8 °F8.4 °F59 %30.30 in10.0 miNorth (10°)11.5 mphClear
4:35 PM20.3 °F7.9 °F59 %30.31 in10.0 miNorth (10°)11.5 mphClear
4:55 PM19.6 °F7.7 °F60 %30.32 in10.0 miNorth (10°)10.4 mphClear
5:15 PM19.2 °F7.7 °F61 %30.31 in10.0 miNorth (10°)10.4 mphClear
5:35 PM18.1 °F7.5 °F63 %30.32 in10.0 miNNE (30°)10.4 mphClear
5:55 PM17.4 °F7.2 °F64 %30.31 in10.0 miNE (40°)10.4 mphClear
6:15 PM16.2 °F6.8 °F67 %30.32 in10.0 miNE (40°)11.5 mphClear
6:35 PM15.4 °F6.8 °F69 %30.35 in10.0 miNE (40°)9.2 mphClear
6:55 PM14.9 °F7.0 °F71 %30.36 in10.0 miNE (40°)8.1 mphClear
7:15 PM14.5 °F6.8 °F71 %30.37 in10.0 miNNE (30°)8.1 mphClear
7:35 PM14.0 °F6.6 °F72 %30.36 in10.0 miNE (40°)5.8 mphClear
7:55 PM13.8 °F6.4 °F72 %30.35 in10.0 miNE (50°)5.8 mphClear
8:15 PM13.1 °F5.9 °F73 %30.36 in10.0 miNE (50°)3.5 mphClear
8:35 PM12.6 °F5.9 °F75 %30.37 in10.0 miCalmClear
8:55 PM11.3 °F5.0 °F76 %30.36 in10.0 miCalmClear
9:15 PM10.4 °F4.6 °F78 %30.37 in10.0 miCalmClear
9:35 PM11.1 °F5.5 °F78 %30.36 in10.0 miENE (70°)5.8 mphClear
9:55 PM10.9 °F5.0 °F77 %30.35 in10.0 miEast (80°)6.9 mphClear
10:15 PM10.2 °F4.6 °F78 %30.36 in10.0 miEast (90°)6.9 mphClear
10:35 PM9.5 °F4.1 °F79 %30.36 in10.0 miEast (90°)6.9 mphClear
10:55 PM8.6 °F3.6 °F80 %30.37 in10.0 miEast (90°)5.8 mphClear
11:15 PM7.9 °F2.8 °F80 %30.36 in10.0 miESE (110°)5.8 mphClear
11:35 PM6.8 °F3.2 °F85 %30.37 in10.0 miESE (110°)5.8 mphClear
11:55 PM7.7 °F3.0 °F81 %30.38 in10.0 miESE (120°)4.6 mphClear
Hourly data recorded from KANW, located miles away from Koshopah, Nebraska







STORIES FROM OUR PARTNERS